When you browse on this site, cookies collect data to enhance your experience and personalize the content and advertising you see.
Visit our Privacy Policy to learn more. By continuing to use the site, you agree to this use of cookies and data.
  • en Suisse
  • Liste des pays
  • À 7 jours
  • Température de l'eau
  • Carte satellitaire
  • Carte météo
  • Widgets météo
  • user-avatar
    Se connecter

    Météo par heure à Zelenaya Roscha

    Ce jour, 27 Juin, Jeudi

    Heure Température Précipitation Vent Pression Humidité
    00:00 +17°C° 0 mm 3 m/s 741 mmHg 87%
    01:00 +16°C° 0.2 mm 2 m/s 741 mmHg 89%
    02:00 +16°C° 0.2 mm 2 m/s 741 mmHg 91%
    03:00 +16°C° 0.2 mm 2 m/s 740 mmHg 94%
    04:00 +16°C° 0.4 mm 1 m/s 739 mmHg 95%
    05:00 +16°C° 0.4 mm 1 m/s 739 mmHg 96%
    06:00 +16°C° 0.4 mm 1 m/s 738 mmHg 97%
    07:00 +18°C° 0.4 mm 1 m/s 738 mmHg 94%
    08:00 +19°C° 0.4 mm 1 m/s 738 mmHg 91%
    09:00 +20°C° 0.4 mm 1 m/s 737 mmHg 88%
    10:00 +19°C° 0.1 mm 2 m/s 737 mmHg 88%
    11:00 +20°C° 0.1 mm 2 m/s 736 mmHg 89%
    12:00 +20°C° 0.1 mm 2 m/s 735 mmHg 89%
    13:00 +20°C° 1.3 mm 2 m/s 734 mmHg 91%
    14:00 +19°C° 1.3 mm 3 m/s 733 mmHg 93%
    15:00 +19°C° 1.3 mm 3 m/s 733 mmHg 95%
    16:00 +19°C° 1 mm 4 m/s 731 mmHg 94%
    17:00 +20°C° 1 mm 5 m/s 730 mmHg 93%
    18:00 +20°C° 1 mm 7 m/s 729 mmHg 92%
    19:00 +20°C° 2 mm 6 m/s 728 mmHg 92%
    20:00 +20°C° 2 mm 5 m/s 728 mmHg 92%
    21:00 +20°C° 2 mm 4 m/s 727 mmHg 91%
    22:00 +19°C° 0 mm 4 m/s 726 mmHg 93%
    23:00 +19°C° 0 mm 4 m/s 725 mmHg 94%

    Demain, 28 Juin, Vendredi

    Heure Température Précipitation Vent Pression Humidité
    00:00 +19°C° 0 mm 5 m/s 725 mmHg 96%
    01:00 +17°C° 0 mm 5 m/s 725 mmHg 95%
    02:00 +17°C° 0 mm 5 m/s 724 mmHg 94%
    03:00 +17°C° 0 mm 6 m/s 724 mmHg 94%
    04:00 +16°C° 0 mm 6 m/s 724 mmHg 93%
    05:00 +16°C° 0 mm 6 m/s 724 mmHg 93%
    06:00 +15°C° 0 mm 7 m/s 724 mmHg 92%
    07:00 +15°C° 0.1 mm 6 m/s 724 mmHg 91%
    08:00 +15°C° 0.1 mm 6 m/s 724 mmHg 89%
    09:00 +15°C° 0.1 mm 6 m/s 724 mmHg 87%
    10:00 +15°C° 0.1 mm 6 m/s 724 mmHg 85%
    11:00 +15°C° 0.1 mm 7 m/s 724 mmHg 83%
    12:00 +15°C° 0.1 mm 7 m/s 724 mmHg 80%
    13:00 +15°C° 0.1 mm 7 m/s 724 mmHg 80%
    14:00 +15°C° 0.1 mm 7 m/s 724 mmHg 81%
    15:00 +15°C° 0.1 mm 6 m/s 724 mmHg 81%
    16:00 +15°C° 0.1 mm 6 m/s 724 mmHg 81%
    17:00 +15°C° 0.1 mm 6 m/s 723 mmHg 81%
    18:00 +14°C° 0.1 mm 5 m/s 723 mmHg 82%
    19:00 +14°C° 0.1 mm 5 m/s 723 mmHg 84%
    20:00 +13°C° 0.1 mm 4 m/s 724 mmHg 86%
    21:00 +12°C° 0.1 mm 3 m/s 724 mmHg 89%
    22:00 +12°C° 0.2 mm 4 m/s 724 mmHg 90%
    23:00 +11°C° 0.2 mm 4 m/s 724 mmHg 92%

    Après-demain, 29 Juin, Samedi

    Heure Température Précipitation Vent Pression Humidité
    00:00 +10°C° 0.2 mm 5 m/s 724 mmHg 93%
    01:00 +9°C° 0.3 mm 6 m/s 724 mmHg 94%
    02:00 +9°C° 0.3 mm 6 m/s 724 mmHg 94%
    03:00 +9°C° 0.3 mm 7 m/s 724 mmHg 94%
    04:00 +9°C° 0.3 mm 7 m/s 725 mmHg 94%
    05:00 +9°C° 0.3 mm 7 m/s 725 mmHg 94%
    06:00 +10°C° 0.3 mm 7 m/s 725 mmHg 94%
    07:00 +9°C° 0.4 mm 7 m/s 726 mmHg 94%
    08:00 +9°C° 0.4 mm 8 m/s 726 mmHg 93%
    09:00 +7°C° 0.4 mm 8 m/s 727 mmHg 93%
    10:00 +7°C° 0.5 mm 8 m/s 727 mmHg 93%
    11:00 +6°C° 0.5 mm 8 m/s 728 mmHg 93%
    12:00 +6°C° 0.5 mm 7 m/s 729 mmHg 93%
    13:00 +5°C° 0.5 mm 7 m/s 729 mmHg 93%
    14:00 +5°C° 0.5 mm 7 m/s 730 mmHg 93%
    15:00 +5°C° 0.5 mm 7 m/s 731 mmHg 93%
    16:00 +5°C° 0.5 mm 6 m/s 731 mmHg 93%
    17:00 +5°C° 0.5 mm 6 m/s 731 mmHg 93%
    18:00 +5°C° 0.5 mm 6 m/s 732 mmHg 94%
    19:00 +6°C° 0.7 mm 5 m/s 732 mmHg 94%
    20:00 +6°C° 0.7 mm 5 m/s 732 mmHg 95%
    21:00 +6°C° 0.7 mm 5 m/s 733 mmHg 95%
    22:00 +6°C° 0.6 mm 4 m/s 733 mmHg 95%
    23:00 +7°C° 0.6 mm 4 m/s 733 mmHg 94%

    30 Juin, Dimanche

    Heure Température Précipitation Vent Pression Humidité
    00:00 +7°C° 0.6 mm 4 m/s 733 mmHg 94%
    01:00 +7°C° 0.4 mm 4 m/s 733 mmHg 93%
    02:00 +7°C° 0.4 mm 4 m/s 733 mmHg 93%
    03:00 +7°C° 0.4 mm 4 m/s 733 mmHg 92%
    04:00 +7°C° 0.4 mm 4 m/s 734 mmHg 92%
    05:00 +7°C° 0.4 mm 4 m/s 734 mmHg 92%
    06:00 +8°C° 0.4 mm 3 m/s 734 mmHg 92%
    07:00 +9°C° 0.1 mm 3 m/s 734 mmHg 89%
    08:00 +10°C° 0.1 mm 3 m/s 735 mmHg 86%
    09:00 +11°C° 0.1 mm 4 m/s 735 mmHg 83%
    10:00 +13°C° 0 mm 4 m/s 735 mmHg 76%
    11:00 +14°C° 0 mm 5 m/s 736 mmHg 68%
    12:00 +16°C° 0 mm 6 m/s 736 mmHg 61%
    13:00 +16°C° 0 mm 6 m/s 736 mmHg 60%
    14:00 +17°C° 0 mm 6 m/s 736 mmHg 59%
    15:00 +17°C° 0 mm 6 m/s 736 mmHg 58%
    16:00 +17°C° 0 mm 5 m/s 736 mmHg 62%
    17:00 +18°C° 0 mm 4 m/s 737 mmHg 65%
    18:00 +18°C° 0 mm 4 m/s 737 mmHg 68%
    19:00 +16°C° 0 mm 3 m/s 737 mmHg 71%
    20:00 +14°C° 0 mm 3 m/s 737 mmHg 74%
    21:00 +13°C° 0 mm 2 m/s 737 mmHg 76%
    22:00 +13°C° 0 mm 2 m/s 737 mmHg 78%
    23:00 +12°C° 0 mm 2 m/s 737 mmHg 79%

    1 Juillet, Lundi

    Heure Température Précipitation Vent Pression Humidité
    00:00 +12°C° 0 mm 2 m/s 738 mmHg 81%
    01:00 +12°C° 0 mm 2 m/s 738 mmHg 84%
    02:00 +10°C° 0 mm 2 m/s 738 mmHg 87%
    03:00 +10°C° 0 mm 2 m/s 738 mmHg 90%
    04:00 +12°C° 0 mm 2 m/s 738 mmHg 90%
    05:00 +12°C° 0 mm 2 m/s 738 mmHg 89%
    06:00 +13°C° 0 mm 2 m/s 738 mmHg 89%
    07:00 +14°C° 0 mm 2 m/s 738 mmHg 85%
    08:00 +16°C° 0 mm 2 m/s 738 mmHg 80%
    09:00 +17°C° 0 mm 2 m/s 738 mmHg 76%
    10:00 +18°C° 0.2 mm 2 m/s 738 mmHg 72%
    11:00 +19°C° 0.2 mm 2 m/s 738 mmHg 68%
    12:00 +20°C° 0.2 mm 2 m/s 738 mmHg 64%
    13:00 +20°C° 0.1 mm 2 m/s 738 mmHg 63%
    14:00 +21°C° 0.1 mm 2 m/s 738 mmHg 61%
    15:00 +21°C° 0.1 mm 2 m/s 737 mmHg 59%
    16:00 +21°C° 0.1 mm 2 m/s 737 mmHg 60%
    17:00 +22°C° 0.1 mm 1 m/s 737 mmHg 61%
    18:00 +22°C° 0.1 mm 1 m/s 737 mmHg 62%
    19:00 +20°C° 0 mm 1 m/s 737 mmHg 67%
    20:00 +18°C° 0 mm 1 m/s 737 mmHg 72%
    21:00 +16°C° 0 mm 1 m/s 737 mmHg 77%
    22:00 +15°C° 0 mm 1 m/s 737 mmHg 79%
    23:00 +15°C° 0 mm 1 m/s 736 mmHg 81%

    2 Juillet, Mardi

    Heure Température Précipitation Vent Pression Humidité
    00:00 +14°C° 0 mm 2 m/s 736 mmHg 83%
    01:00 +14°C° 0 mm 2 m/s 736 mmHg 83%
    02:00 +13°C° 0 mm 2 m/s 736 mmHg 83%
    03:00 +13°C° 0 mm 2 m/s 735 mmHg 84%
    04:00 +14°C° 0 mm 2 m/s 735 mmHg 84%
    05:00 +14°C° 0 mm 2 m/s 735 mmHg 85%
    06:00 +15°C° 0 mm 2 m/s 735 mmHg 85%
    07:00 +16°C° 0 mm 3 m/s 734 mmHg 82%
    08:00 +18°C° 0 mm 3 m/s 734 mmHg 80%
    09:00 +20°C° 0 mm 3 m/s 734 mmHg 77%
    10:00 +21°C° 0 mm 3 m/s 734 mmHg 75%
    11:00 +24°C° 0 mm 3 m/s 733 mmHg 73%
    12:00 +25°C° 0 mm 3 m/s 733 mmHg 71%
    13:00 +25°C° 1.1 mm 3 m/s 733 mmHg 73%
    14:00 +25°C° 1.1 mm 3 m/s 732 mmHg 75%
    15:00 +25°C° 1.1 mm 3 m/s 732 mmHg 78%
    16:00 +25°C° 0.7 mm 3 m/s 732 mmHg 80%
    17:00 +23°C° 0.7 mm 4 m/s 732 mmHg 81%
    18:00 +23°C° 0.7 mm 4 m/s 732 mmHg 83%
    19:00 +22°C° 0.2 mm 4 m/s 732 mmHg 86%
    20:00 +20°C° 0.2 mm 4 m/s 732 mmHg 89%
    21:00 +19°C° 0.2 mm 4 m/s 732 mmHg 92%
    22:00 +18°C° 0 mm 4 m/s 732 mmHg 91%
    23:00 +17°C° 0 mm 4 m/s 732 mmHg 90%
    Voir plus